Le nostre stazioni meteo in Italia

Pubblicità
Il mio iltempo24.it
Alghero, Italia (16520): Temperatura & dewpoint: 15.04.2019 09:00:00 - 21.04.2019 09:00:00 (CEST)Alghero, Italia (16520): velocità del vento: 15.04.2019 09:00:00 - 21.04.2019 09:00:00 (CEST)Alghero, Italia (16520): direzione del vento: 15.04.2019 09:00:00 - 21.04.2019 09:00:00 (CEST)Alghero, Italia (16520): reduced air pressure: 15.04.2019 09:00:00 - 21.04.2019 09:00:00 (CEST)Alghero, Italia (16520): visibility: 15.04.2019 09:00:00 - 21.04.2019 09:00:00 (CEST)Alghero, Italia (16520): precipitazioni: 15.04.2019 09:00:00 - 21.04.2019 09:00:00 (CEST)
Data & Tempo tt [°C] td [°C] ff [km/h] ff [kn] dd ppp [hPa] vv [km] rr [mm]
21.04.2019 09:00:00 16,0 9,0 26 14 ENE - 10 -
21.04.2019 08:00:00 15,0 9,0 21 11 ENE - 10 -
21.04.2019 07:00:00 15,0 9,0 22 12 ENE - 10 -
21.04.2019 06:00:00 15,0 7,0 21 11 E - 10 -
21.04.2019 05:00:00 14,9 6,7 24 13 E 1014,1 10 0,0
21.04.2019 04:00:00 14,0 5,0 15 8 ENE - 10 -
21.04.2019 03:00:00 14,0 6,0 11 6 NE - 10 -
21.04.2019 02:00:00 14,8 6,4 16 9 ENE 1016,7 10 -
21.04.2019 01:00:00 16,0 6,0 22 12 ENE - 10 -
21.04.2019 00:00:00 15,0 7,0 16 9 ENE - 10 -
20.04.2019 23:00:00 16,2 6,2 18 10 E 1017,5 10 0,0
20.04.2019 22:00:00 17,0 5,0 16 9 ENE - 10 -
20.04.2019 21:00:00 17,0 3,0 16 9 ENE - 10 -
20.04.2019 20:00:00 18,2 2,3 15 8 E 1016,1 10 -
20.04.2019 19:00:00 19,0 4,0 21 11 E - 10 -
20.04.2019 18:00:00 20,0 5,0 26 14 E - 10 -
20.04.2019 17:00:00 20,3 5,3 26 14 E 1016,7 10 0,0
20.04.2019 16:00:00 21,0 5,0 21 11 E - 10 -
20.04.2019 15:00:00 22,0 5,0 29 16 E - 10 -
20.04.2019 14:00:00 20,8 5,2 29 16 E 1018,5 10 -
20.04.2019 13:00:00 20,0 7,0 21 11 E - 10 -
20.04.2019 12:00:00 19,0 7,0 21 11 ENE - 10 -
20.04.2019 11:00:00 18,4 8,3 16 9 E 1020,4 10 0,0
20.04.2019 10:00:00 17,0 9,0 15 8 ENE - 10 -
20.04.2019 09:00:00 15,0 9,0 15 8 ENE - 10 -
20.04.2019 08:00:00 14,0 9,0 15 8 NE 1021,4 10 -
20.04.2019 07:00:00 13,0 8,0 15 8 NE - 10 -
20.04.2019 06:00:00 12,0 8,0 15 8 NNE - 10 -
20.04.2019 05:00:00 11,9 7,1 15 8 NNE 1021,7 10 0,0
20.04.2019 04:00:00 11,0 6,0 13 7 NNE - 10 -
20.04.2019 03:00:00 12,0 7,0 15 8 NE - 10 -
20.04.2019 02:00:00 12,3 7,1 15 8 NE 1022,6 10 -
20.04.2019 01:00:00 13,0 8,0 13 7 NE - 10 -
20.04.2019 00:00:00 13,0 8,0 13 7 NE - 10 -
19.04.2019 23:00:00 13,8 8,7 15 8 NE 1023,3 10 0,0
19.04.2019 22:00:00 16,0 9,0 11 6 N - 10 -
19.04.2019 21:00:00 17,0 6,0 15 8 NE - 10 -
19.04.2019 20:00:00 19,8 6,2 18 10 E 1022,0 10 -
19.04.2019 19:00:00 22,0 9,0 22 12 E - 10 -
19.04.2019 18:00:00 23,0 11,0 15 8 - - 10 -
19.04.2019 17:00:00 22,3 10,7 16 9 NO 1021,3 10 0,0
19.04.2019 16:00:00 24,0 11,0 5 3 - - 10 -
19.04.2019 15:00:00 24,0 10,0 9 5 S - 10 -
19.04.2019 14:00:00 23,9 9,3 21 11 E 1021,9 10 -
19.04.2019 13:00:00 23,0 9,0 22 12 E - 10 -
19.04.2019 12:00:00 21,0 8,0 21 11 ENE - 10 -
19.04.2019 11:00:00 20,1 7,5 21 11 E 1022,5 10 0,0
19.04.2019 10:00:00 18,0 7,0 15 8 NE - 10 -
19.04.2019 09:00:00 16,0 8,0 15 8 NE - 10 -
19.04.2019 08:00:00 13,8 7,9 13 7 NE 1021,8 10 -
19.04.2019 07:00:00 13,0 7,0 18 10 ENE - 10 -
19.04.2019 06:00:00 13,0 6,0 21 11 ENE - 10 -
19.04.2019 05:00:00 12,6 5,5 16 9 ENE 1020,8 10 0,0
19.04.2019 04:00:00 11,0 6,0 13 7 NE - 10 -
19.04.2019 03:00:00 13,0 5,0 13 7 NNE - 10 -
19.04.2019 02:00:00 10,8 6,0 13 7 NE 1020,5 10 -
19.04.2019 01:00:00 11,0 7,0 15 8 NE - 10 -
19.04.2019 00:00:00 13,0 7,0 13 7 ENE - 10 -
18.04.2019 23:00:00 13,5 7,1 13 7 NE 1019,8 10 0,0
18.04.2019 22:00:00 15,0 7,0 11 6 NE - 10 -
18.04.2019 21:00:00 17,0 6,0 16 9 ESE - 10 -
18.04.2019 20:00:00 18,7 6,5 16 9 SE 1018,0 10 -
18.04.2019 19:00:00 22,0 8,0 16 9 E - 10 -
18.04.2019 18:00:00 22,0 9,0 18 10 E - 10 -
18.04.2019 17:00:00 22,8 9,8 8 4 S 1017,1 10 0,0
18.04.2019 16:00:00 23,0 10,0 9 5 - - 10 -
18.04.2019 15:00:00 23,0 11,0 13 7 S - 10 -
18.04.2019 14:00:00 22,5 9,7 15 8 E 1017,8 10 -
18.04.2019 13:00:00 21,0 10,0 16 9 E - 10 -
18.04.2019 12:00:00 20,0 10,0 16 9 E - 10 -
18.04.2019 11:00:00 19,0 9,7 13 7 ENE 1019,1 10 0,0
18.04.2019 10:00:00 17,0 10,0 13 7 ENE - 10 -
18.04.2019 09:00:00 14,0 11,0 11 6 NE - 10 -
18.04.2019 08:00:00 12,6 9,8 11 6 NNE 1018,9 10 -
18.04.2019 07:00:00 11,0 9,0 11 6 NNE - 10 -
18.04.2019 06:00:00 11,0 10,0 15 8 NE - 10 -
18.04.2019 05:00:00 10,5 9,6 11 6 NNE 1018,7 10 0,0
18.04.2019 04:00:00 9,0 9,0 4 2 NO - 10 -
18.04.2019 03:00:00 10,0 10,0 4 2 - - 10 -
18.04.2019 02:00:00 10,1 9,3 8 4 NE 1020,1 10 -
18.04.2019 01:00:00 11,0 11,0 4 2 ENE - 10 -
18.04.2019 00:00:00 11,0 11,0 5 3 NE - 10 -
17.04.2019 23:00:00 11,3 10,4 2 1 - 1019,9 10 0,0
17.04.2019 22:00:00 13,0 11,0 9 5 ENE - 10 -
17.04.2019 21:00:00 14,0 10,0 9 5 NNE - 10 -
17.04.2019 20:00:00 16,2 8,8 11 6 NE 1018,6 10 -
17.04.2019 19:00:00 18,0 10,0 13 7 NNE - 10 -
17.04.2019 18:00:00 19,0 10,0 15 8 NNE - 10 -
17.04.2019 17:00:00 19,5 10,2 11 6 NE 1018,9 10 0,0
17.04.2019 16:00:00 19,0 12,0 11 6 ONO - 10 -
17.04.2019 15:00:00 19,0 12,0 13 7 ONO - 10 -
17.04.2019 14:00:00 19,3 12,7 13 7 SSO 1019,8 10 -
17.04.2019 13:00:00 19,0 11,0 8 4 OSO - 10 -
17.04.2019 12:00:00 19,0 10,0 4 2 - - 10 -
17.04.2019 11:00:00 17,0 9,8 5 3 E 1020,6 10 0,0
17.04.2019 10:00:00 15,0 11,0 5 3 - - 10 -
17.04.2019 09:00:00 11,0 9,0 5 3 ENE - 10 -
17.04.2019 08:00:00 8,9 8,0 5 3 NE 1020,3 10 -
17.04.2019 07:00:00 6,0 6,0 5 3 NNE - 10 -
17.04.2019 06:00:00 7,0 7,0 5 3 NNE - 10 -
17.04.2019 05:00:00 6,6 6,4 0 0 N 1019,7 10 0,0
17.04.2019 04:00:00 7,0 7,0 2 1 - - 10 -
17.04.2019 03:00:00 7,0 7,0 5 3 NNE - 10 -
17.04.2019 02:00:00 7,8 7,3 4 2 ENE 1020,4 10 -
17.04.2019 01:00:00 9,0 8,0 4 2 NNE - 10 -
17.04.2019 00:00:00 9,0 8,0 4 2 - - 10 -
16.04.2019 23:00:00 10,7 9,7 2 1 - 1020,6 10 0,0
16.04.2019 22:00:00 12,0 10,0 4 2 - - 10 -
16.04.2019 21:00:00 14,0 10,0 5 3 N - 10 -
16.04.2019 20:00:00 15,3 10,4 11 6 NE 1019,5 10 -
16.04.2019 19:00:00 17,0 9,0 9 5 N - 10 -
16.04.2019 18:00:00 18,0 9,0 11 6 N - 10 -
16.04.2019 17:00:00 18,7 10,2 15 8 N 1018,8 10 0,0
16.04.2019 16:00:00 19,0 9,0 15 8 NNE - 10 -
16.04.2019 15:00:00 19,0 9,0 11 6 NNE - 10 -
16.04.2019 14:00:00 18,3 8,7 11 6 NE 1018,9 10 -
16.04.2019 13:00:00 17,0 9,0 11 6 NE - 10 -
16.04.2019 12:00:00 16,0 11,0 9 5 NE - 10 -
16.04.2019 11:00:00 15,1 10,6 5 3 ENE 1019,6 10 0,0
16.04.2019 10:00:00 14,0 9,0 11 6 E - 10 -
16.04.2019 09:00:00 13,0 10,0 9 5 - - 10 -
16.04.2019 08:00:00 12,2 9,0 8 4 N 1019,1 10 -
16.04.2019 07:00:00 11,0 8,0 8 4 N - 10 -
16.04.2019 06:00:00 11,0 9,0 9 5 N - 10 -
16.04.2019 05:00:00 10,6 9,1 4 2 - 1017,7 10 0,0
16.04.2019 04:00:00 11,0 8,0 4 2 - - 10 -
16.04.2019 03:00:00 10,0 9,0 8 4 NE - 10 -
16.04.2019 02:00:00 10,4 8,3 4 2 - 1018,6 10 -
16.04.2019 01:00:00 10,0 8,0 2 1 - - 10 -
16.04.2019 00:00:00 11,0 9,0 2 1 - - 10 -
15.04.2019 23:00:00 11,3 9,1 11 6 NE 1018,7 10 0,0
15.04.2019 22:00:00 12,0 9,0 15 8 NNE - 10 -
15.04.2019 21:00:00 13,0 10,0 18 10 NNE - 10 -
15.04.2019 20:00:00 14,0 9,6 16 9 NNE 1017,5 10 -
15.04.2019 19:00:00 16,0 9,0 21 11 NNE - 10 -
15.04.2019 18:00:00 17,0 10,0 26 14 NE - 10 -
15.04.2019 17:00:00 17,8 9,3 29 16 NE 1016,7 10 0,0
15.04.2019 16:00:00 19,0 9,0 24 13 NE - 10 -
15.04.2019 15:00:00 18,0 9,0 22 12 NNE - 10 -
15.04.2019 14:00:00 18,0 9,6 22 12 NE 1017,3 10 -
15.04.2019 13:00:00 18,0 9,0 22 12 NE - 10 -
15.04.2019 12:00:00 17,0 8,0 21 11 ENE - 10 -
15.04.2019 11:00:00 16,0 8,7 8 4 E 1017,2 10 0,0
15.04.2019 10:00:00 14,0 9,0 9 5 NE - 10 -
15.04.2019 09:00:00 13,0 10,0 4 2 - - 10 -

tt = Temperatura
td = dewpoint
ff = velocità del vento
dd = direzione del vento
ppp = reduced air pressure
vv = visibility
rr = precipitazioni

Stazioni seguenti

WeatherPro
AMSI
MeteoEarth